Location: Lewisville
(33.0462°N, 96.9942°W)
Time: 12:35:37
(UTC-05:00)

Hubble Space Telescope - Pass Details

Date: 03 July 2019
Orbit: 536 x 540 km, 28.5° (Epoch: 13 August)

Event Time Altitude Azimuth Distance (km) Brightness Sun altitude
Rises 21:15:37 0° 265° (W) 2,679 5.3 -7.1°
Maximum altitude 21:21:48 35° 191° (S) 876 1.7 -8.2°
Enters shadow 21:25:17 12° 126° (SE) 1,683 2.6 -8.8°
